Regional Weather Roundup
Issued by NWS

Home | Current Version | Previous Version | Graphics & Text | Print | Product List | Glossary On
Versions: 1 2 3 4 5 6 7 8 9 10 11 12 13 14 15 16 17 18 19 20 21 22 23 24 25 26 27 28 29 30 31 32 33 34 35 36 37 38 39 40 41 42 43 44 45 46 47 48 49 50
863
ASUS44 KMEG 061100
RWRTN
TENNESSEE HOURLY STATE WEATHER ROUNDUP
NATIONAL WEATHER SERVICE MEMPHIS TN
500 AM CST TUE DEC 06 2016

TNZ002-004-019-021-049-052-054-088>092-061200-
WEST TENNESSEE

CITY           SKY/WX    TMP DP  RH WIND       PRES   REMARKS
MEMPHIS INTL   LGT RAIN  46  45  96 NW8       29.66R FOG
NWS MEMPHIS      N/A     45 N/A N/A MISG        N/A
JACKSON        RAIN      46  46 100 N7        29.59F FOG
DYERSBURG      CLOUDY   N/A N/A N/A N10       29.64R
UNION CITY     CLOUDY    41  41 100 N12       29.62F
PARIS          CLOUDY    43  43 100 NE8       29.60F
$$

TNZ008-025-027-028-033-062-065-066-061200-
NORTH MIDDLE TENNESSEE

CITY           SKY/WX    TMP DP  RH WIND       PRES   REMARKS
NASHVILLE      CLOUDY    53  51  93 SE10      29.56F
CLARKSVILLE    CLOUDY    47  45  93 CALM      29.59F
SMYRNA         LGT RAIN  54  53  97 S3        29.59F
CROSSVILLE     RAIN      53  52  96 S7        29.70F FOG
$$

TNZ061-075-076-078-094-096-097-061200-
SOUTH MIDDLE TENNESSEE

CITY           SKY/WX    TMP DP  RH WIND       PRES   REMARKS
TULLAHOMA      CLOUDY    52  52 100 E8        29.62F
WINCHESTER     CLOUDY    52  52 100 E9        29.66F
SHELBYVILLE    CLOUDY    57  55  94 SE9       29.63F
$$

TNZ017-018-042-046-047-061200-
NORTHEAST TENNESSEE

CITY           SKY/WX    TMP DP  RH WIND       PRES   REMARKS
TRI CITIES     RAIN      46  45  96 NE3       29.80F FOG
$$

TNZ012-013-036-069-073-074-061200-
CENTRAL EAST TENNESSEE

CITY           SKY/WX    TMP DP  RH WIND       PRES   REMARKS
KNOXVILLE      LGT RAIN  49  47  93 NE7       29.70F FOG
OAK RIDGE      LGT RAIN  50  48  93 CALM      29.74F FOG
GATLINBURG     CLOUDY    46  46 100 NW3       29.71F
$$

TNZ083-085-099-061200-
SOUTHEAST TENNESSEE

CITY           SKY/WX    TMP DP  RH WIND       PRES   REMARKS
CHATTANOOGA    LGT RAIN  51  49  92 E5        29.67F FOG
$$

SKY/WX REPORTED AS FAIR MEANS FEW OR NO CLOUDS BELOW
12 THOUSAND FEET.





USA.gov is the U.S. government's official web portal to all federal, state and local government web resources and services.